﻿_id,日時,平均風速(m/s),平均風向,最大瞬間風速(m/s),最大風速時風向,気温(℃),湿度(%),10分間移動積算雨量(mm),1時間移動積算雨量(mm),日雨量(mm),累計雨量(mm)
1,2023-05-15T00:00:00,1.2,西北西,2.1,北西,14.6,97.9,0,0,8,14
2,2023-05-15T00:01:00,1.2,西北西,2.2,西北西,14.6,97.9,0,0,0,14
3,2023-05-15T00:02:00,1.3,北西,3.2,北北西,14.7,98,0,0,0,14
4,2023-05-15T00:03:00,1.3,西北西,3.2,北北西,14.7,98,0,0,0,14
5,2023-05-15T00:04:00,1.3,西北西,3.2,北北西,14.8,98,0,0,0,14
6,2023-05-15T00:05:00,1.3,北西,3.2,北北西,14.8,98,0,0,0,14
7,2023-05-15T00:06:00,1.2,北西,3.2,北北西,14.8,98,0,0,0,14
8,2023-05-15T00:07:00,1.1,北西,3.2,北北西,14.8,98,0,0,0,14
9,2023-05-15T00:08:00,1.2,北西,3.2,北北西,14.7,98,0,0,0,14
10,2023-05-15T00:09:00,1.2,北西,3.2,北北西,14.7,97.9,0,0,0,14
11,2023-05-15T00:10:00,1.2,北西,3.2,北北西,14.7,97.9,0,0,0,14
12,2023-05-15T00:11:00,1.2,北西,3.2,北北西,14.7,97.9,0,0,0,14
13,2023-05-15T00:12:00,1.1,北西,2.2,北北西,14.7,98,0,0,0,14
14,2023-05-15T00:13:00,1.1,北西,2,北西,14.7,98,0,0,0,14
15,2023-05-15T00:14:00,1.1,北西,2,北西,14.8,98,0,0,0,14
16,2023-05-15T00:15:00,1.1,北西,2,北西,14.8,98,0,0,0,14
17,2023-05-15T00:16:00,1.1,北西,2,北西,14.8,98,0,0,0,14
18,2023-05-15T00:17:00,1.1,北西,2,北西,14.7,98,0,0,0,14
19,2023-05-15T00:18:00,1.1,北西,2,北西,14.7,98,0,0,0,14
20,2023-05-15T00:19:00,1,北西,1.8,北西,14.7,98,0,0,0,14
21,2023-05-15T00:20:00,0.9,北北西,1.8,北西,14.7,98,0,0,0,14
22,2023-05-15T00:21:00,0.8,北北西,1.8,北西,14.7,97.9,0,0,0,14
23,2023-05-15T00:22:00,0.7,北北西,1.4,北北西,14.7,98,0,0,0,14
24,2023-05-15T00:23:00,0.7,北北西,1.1,北北西,14.7,97.9,0,0,0,14
25,2023-05-15T00:24:00,0.6,北西,1.1,北北西,14.7,98,0,0,0,14
26,2023-05-15T00:25:00,0.6,北西,1.1,南南西,14.5,97.9,0,0,0,14
27,2023-05-15T00:26:00,0.6,北西,1.1,南南西,14.4,97.8,0,0,0,14
28,2023-05-15T00:27:00,0.6,西北西,1.1,南南西,14.4,97.8,0,0,0,14
29,2023-05-15T00:28:00,0.6,西北西,1.1,南南西,14.5,97.9,0,0,0,14
30,2023-05-15T00:29:00,0.6,西,1.1,南南西,14.5,98,0,0,0,14
31,2023-05-15T00:30:00,0.6,西,1.1,南南西,14.5,98,0,0,0,14
32,2023-05-15T00:31:00,0.6,西,1.3,西北西,14.5,98,0,0,0,14
33,2023-05-15T00:32:00,0.7,西,1.4,北西,14.5,98,0,0,0,14
34,2023-05-15T00:33:00,0.7,西南西,1.4,北西,14.5,98,0,0,0,14
35,2023-05-15T00:34:00,0.8,西,1.7,西北西,14.5,98,0,0,0,14
36,2023-05-15T00:35:00,0.8,西,1.7,西北西,14.5,98,0,0,0,14
37,2023-05-15T00:36:00,0.9,西,2.3,西北西,14.5,98,0,0,0,14
38,2023-05-15T00:37:00,1.1,西北西,2.4,西北西,14.5,98,0,0,0,14
39,2023-05-15T00:38:00,1.2,西北西,2.6,西北西,14.5,98,0,0,0,14
40,2023-05-15T00:39:00,1.3,西北西,2.6,西北西,14.4,98,0,0,0,14
41,2023-05-15T00:40:00,1.3,西北西,2.6,西北西,14.4,97.9,0,0,0,14
42,2023-05-15T00:41:00,1.3,西北西,2.6,西北西,14.4,97.9,0,0,0,14
43,2023-05-15T00:42:00,1.3,西北西,2.6,西北西,14.5,98,0,0,0,14
44,2023-05-15T00:43:00,1.3,西北西,2.6,西北西,14.6,98.1,0,0,0,14
45,2023-05-15T00:44:00,1.3,西北西,2.6,西北西,14.5,98.1,0,0,0,14
46,2023-05-15T00:45:00,1.3,西北西,2.6,西北西,14.6,98.1,0,0,0,14
47,2023-05-15T00:46:00,1.2,西北西,2.6,西北西,14.6,98,0,0,0,14
48,2023-05-15T00:47:00,1.1,北西,2.6,西北西,14.5,98.1,0,0,0,14
49,2023-05-15T00:48:00,0.9,北西,2,北西,14.5,98,0,0,0,14
50,2023-05-15T00:49:00,0.9,北西,2,北西,14.5,98,0,0,0,14
51,2023-05-15T00:50:00,1,北西,2,北西,14.5,98,0,0,0,14
52,2023-05-15T00:51:00,1,北西,1.8,北西,14.5,98,0,0,0,14
53,2023-05-15T00:52:00,1,北西,2,北,14.5,98,0,0,0,14
54,2023-05-15T00:53:00,1.1,北西,2.1,北,14.5,98,0,0,0,14
55,2023-05-15T00:54:00,1.2,北西,2.4,北,14.5,98,0,0,0,14
56,2023-05-15T00:55:00,1.2,北西,2.4,北,14.5,98,0,0,0,14
57,2023-05-15T00:56:00,1.3,北北西,2.4,北,14.5,98,0,0,0,14
58,2023-05-15T00:57:00,1.3,北北西,2.5,北北西,14.5,98,0,0,0,14
59,2023-05-15T00:58:00,1.5,北北西,3.1,北西,14.4,98,0,0,0,14
60,2023-05-15T00:59:00,1.6,北北西,3.1,北西,14.4,97.9,0,0,0,14
61,2023-05-15T01:00:00,1.5,北北西,3.1,北西,14.4,98,0,0,0,14
62,2023-05-15T01:01:00,1.5,北北西,3.1,北西,14.5,98,0,0,0,14
63,2023-05-15T01:02:00,1.4,北北西,3.1,北西,14.5,98.1,0,0,0,14
64,2023-05-15T01:03:00,1.3,北北西,3.1,北西,14.5,98.1,0,0,0,14
65,2023-05-15T01:04:00,1.1,北北西,3.1,北西,14.5,98,0,0,0,14
66,2023-05-15T01:05:00,1,北北西,3.1,北西,14.6,98.1,0,0,0,14
67,2023-05-15T01:06:00,1,北北西,3.1,北西,14.6,98.1,0,0,0,14
68,2023-05-15T01:07:00,0.9,北,3.1,北西,14.5,98.1,0,0,0,14
69,2023-05-15T01:08:00,0.8,北,2.7,北西,14.5,98,0,0,0,14
70,2023-05-15T01:09:00,0.6,北,1.5,北北西,14.5,98,0,0,0,14
71,2023-05-15T01:10:00,0.6,北,1.5,北北西,14.5,98,0,0,0,14
72,2023-05-15T01:11:00,0.6,北,1.6,北北西,14.5,98,0,0,0,14
73,2023-05-15T01:12:00,0.7,北,1.6,北北西,14.4,98,0,0,0,14
74,2023-05-15T01:13:00,0.7,北,1.6,北北西,14.4,98,0,0,0,14
75,2023-05-15T01:14:00,0.7,北,1.6,北北西,14.4,98,0,0,0,14
76,2023-05-15T01:15:00,0.7,北,1.6,北北西,14.5,98.1,0,0,0,14
77,2023-05-15T01:16:00,0.8,北,1.6,北北西,14.4,98,0,0,0,14
78,2023-05-15T01:17:00,0.7,北,1.6,北北西,14.5,98.1,0,0,0,14
79,2023-05-15T01:18:00,0.6,北,1.6,北北西,14.5,98.1,0,0,0,14
80,2023-05-15T01:19:00,0.7,北,1.6,北北西,14.4,98,0,0,0,14
81,2023-05-15T01:20:00,0.6,北,1.6,北北西,14.4,98,0,0,0,14
82,2023-05-15T01:21:00,0.6,北,1.5,北北西,14.4,98,0,0,0,14
83,2023-05-15T01:22:00,0.6,北,1.4,北北西,14.5,98.1,0,0,0,14
84,2023-05-15T01:23:00,0.5,北,1.3,北,14.5,98.1,0,0,0,14
85,2023-05-15T01:24:00,0.5,北,1.3,北,14.5,98.1,0,0,0,14
86,2023-05-15T01:25:00,0.5,北,1.3,北,14.5,98.1,0,0,0,14
87,2023-05-15T01:26:00,0.5,北,1.3,北,14.4,98.1,0,0,0,14
88,2023-05-15T01:27:00,0.5,北,1.3,北,14.4,98,0,0,0,14
89,2023-05-15T01:28:00,0.5,北,1.3,北,14.5,98.1,0,0,0,14
90,2023-05-15T01:29:00,0.5,北,1.3,北,14.5,98.1,0,0,0,14
91,2023-05-15T01:30:00,0.5,北北東,1.3,北,14.4,98.1,0,0,0,14
92,2023-05-15T01:31:00,0.5,北北東,1.1,北北西,14.4,98,0,0,0,14
93,2023-05-15T01:32:00,0.4,北北東,1.1,北北西,14.5,98.1,0,0,0,14
94,2023-05-15T01:33:00,0.4,北北東,1.1,北北西,14.5,98.1,0,0,0,14
95,2023-05-15T01:34:00,0.4,北北東,1.1,北北西,14.4,98.1,0,0,0,14
96,2023-05-15T01:35:00,0.4,北北東,1.1,北北西,14.4,98,0,0,0,14
97,2023-05-15T01:36:00,0.3,北,1,北北西,14.3,98,0,0,0,14
98,2023-05-15T01:37:00,0.3,北,0.7,北西,14.3,98,0,0,0,14
99,2023-05-15T01:38:00,0.3,北北西,0.7,北西,14.2,98,0,0,0,14
100,2023-05-15T01:39:00,0.4,北西,0.8,西北西,14.2,98,0,0,0,14
101,2023-05-15T01:40:00,0.4,北西,0.8,西北西,14.2,98,0,0,0,14
102,2023-05-15T01:41:00,0.4,西北西,0.8,西北西,14.2,98,0,0,0,14
103,2023-05-15T01:42:00,0.4,西北西,0.8,西北西,14.1,98,0,0,0,14
104,2023-05-15T01:43:00,0.4,西北西,0.8,西北西,14.1,98,0,0,0,14
105,2023-05-15T01:44:00,0.4,西北西,0.8,西北西,14.2,98,0,0,0,14
106,2023-05-15T01:45:00,0.4,西北西,0.8,西北西,14.1,98,0,0,0,14
107,2023-05-15T01:46:00,0.4,西北西,0.8,西北西,14.1,98,0,0,0,14
108,2023-05-15T01:47:00,0.4,西北西,0.8,西北西,14.1,98.1,0,0,0,14
109,2023-05-15T01:48:00,0.3,西北西,0.8,西北西,14.1,98.1,0,0,0,14
110,2023-05-15T01:49:00,0.3,西北西,0.7,西北西,14.1,98.1,0,0,0,14
111,2023-05-15T01:50:00,0.3,西北西,0.6,西北西,14.1,98.1,0,0,0,14
112,2023-05-15T01:51:00,0.3,西北西,0.7,西,14.2,98.1,0,0,0,14
113,2023-05-15T01:52:00,0.3,西北西,0.7,西,14.1,98.1,0,0,0,14
114,2023-05-15T01:53:00,0.3,西北西,0.7,西,14.1,98.1,0,0,0,14
115,2023-05-15T01:54:00,0.4,西北西,0.7,西,14.1,98,0,0,0,14
116,2023-05-15T01:55:00,0.4,西北西,0.7,西,14.1,98,0,0,0,14
117,2023-05-15T01:56:00,0.4,西,0.7,西,14.1,98.1,0,0,0,14
118,2023-05-15T01:57:00,0.4,西,0.9,西北西,14.1,98.1,0,0,0,14
119,2023-05-15T01:58:00,0.4,西,1.1,西北西,14,98.1,0,0,0,14
120,2023-05-15T01:59:00,0.5,西,1.2,西北西,14,98,0,0,0,14
121,2023-05-15T02:00:00,0.6,西,1.2,西北西,13.9,98,0,0,0,14
122,2023-05-15T02:01:00,0.7,西,1.2,西北西,13.9,98,0,0,0,14
123,2023-05-15T02:02:00,0.7,西,1.2,西北西,13.9,98,0,0,0,14
124,2023-05-15T02:03:00,0.7,西,1.2,西北西,13.9,98.1,0,0,0,14
125,2023-05-15T02:04:00,0.7,西,1.2,西北西,14,98.1,0,0,0,14
126,2023-05-15T02:05:00,0.8,西,1.2,西北西,13.9,98.1,0,0,0,14
127,2023-05-15T02:06:00,0.8,西,1.2,西北西,14,98.1,0,0,0,14
128,2023-05-15T02:07:00,0.8,西,1.2,西北西,14,98.1,0,0,0,14
129,2023-05-15T02:08:00,0.7,西,1.2,西北西,14,98.1,0,0,0,14
130,2023-05-15T02:09:00,0.7,西,1.2,西北西,14,98.1,0,0,0,14
131,2023-05-15T02:10:00,0.6,西,1.1,西北西,14,98.1,0,0,0,14
132,2023-05-15T02:11:00,0.5,西,1,西,14,98.1,0,0,0,14
133,2023-05-15T02:12:00,0.5,西,0.9,西,14,98.1,0,0,0,14
134,2023-05-15T02:13:00,0.4,西,0.8,西,14,98.1,0,0,0,14
135,2023-05-15T02:14:00,0.4,西,0.8,西北西,14,98.1,0,0,0,14
136,2023-05-15T02:15:00,0.5,西,1.1,西,14,98.1,0,0,0,14
137,2023-05-15T02:16:00,0.5,西,1.5,西,14,98.1,0,0,0,14
138,2023-05-15T02:17:00,0.6,西,1.6,西北西,14,98.1,0,0,0,14
139,2023-05-15T02:18:00,0.7,西,1.8,西,14,98.1,0,0,0,14
140,2023-05-15T02:19:00,0.8,西,1.9,西,14,98.1,0,0,0,14
141,2023-05-15T02:20:00,0.9,西,1.9,西,14.1,98.1,0,0,0,14
142,2023-05-15T02:21:00,1,西,1.9,西,14.1,98.1,0,0,0,14
143,2023-05-15T02:22:00,1.1,西,1.9,西,14.1,98.1,0,0,0,14
144,2023-05-15T02:23:00,1.2,西,1.9,西,14.1,98.1,0,0,0,14
145,2023-05-15T02:24:00,1.3,西,2.1,西北西,14.1,98.1,0,0,0,14
146,2023-05-15T02:25:00,1.4,西,2.1,西北西,14.1,98.1,0,0,0,14
147,2023-05-15T02:26:00,1.4,西北西,2.1,西北西,14.1,98.2,0,0,0,14
148,2023-05-15T02:27:00,1.4,西北西,2.1,西北西,14.2,98.2,0,0,0,14
149,2023-05-15T02:28:00,1.3,西北西,2.1,西北西,14.2,98.2,0,0,0,14
150,2023-05-15T02:29:00,1.3,西北西,2.1,西北西,14.2,98.2,0,0,0,14
151,2023-05-15T02:30:00,1.3,北西,2.1,西北西,14.2,98.2,0,0,0,14
152,2023-05-15T02:31:00,1.2,北西,2.1,西北西,14.1,98.1,0,0,0,14
153,2023-05-15T02:32:00,1.2,北西,2.1,西北西,14.1,98.1,0,0,0,14
154,2023-05-15T02:33:00,1.2,北西,2.1,西北西,14.1,98.1,0,0,0,14
155,2023-05-15T02:34:00,1.1,北西,2,北西,14.1,98.1,0,0,0,14
156,2023-05-15T02:35:00,1,北北西,1.9,西北西,14.2,98.1,0,0,0,14
157,2023-05-15T02:36:00,0.9,北北西,1.9,西北西,14.3,98.2,0,0,0,14
158,2023-05-15T02:37:00,0.9,北北西,1.9,西北西,14.3,98.2,0,0,0,14
159,2023-05-15T02:38:00,0.9,北北西,1.9,西北西,14.2,98.2,0,0,0,14
160,2023-05-15T02:39:00,0.8,北北西,1.9,西北西,14.2,98.2,0,0,0,14
161,2023-05-15T02:40:00,0.8,北,1.9,西北西,14.2,98.2,0,0,0,14
162,2023-05-15T02:41:00,0.7,北,1.9,西北西,14.3,98.2,0,0,0,14
163,2023-05-15T02:42:00,0.7,北,1.9,西北西,14.2,98.2,0,0,0,14
164,2023-05-15T02:43:00,0.6,北,1.5,北北東,14.2,98.1,0,0,0,14
165,2023-05-15T02:44:00,0.6,北北東,1.7,北,14.2,98.1,0,0,0,14
166,2023-05-15T02:45:00,0.7,北北東,1.8,北,14.1,98.1,0,0,0,14
167,2023-05-15T02:46:00,0.7,北北東,1.8,北,14.1,98.1,0,0,0,14
168,2023-05-15T02:47:00,0.8,北北東,1.8,北,14.1,98.1,0,0,0,14
169,2023-05-15T02:48:00,0.8,北北東,1.8,北,14.1,98.1,0,0,0,14
170,2023-05-15T02:49:00,0.8,北,1.8,北,14.1,98.1,0,0,0,14
171,2023-05-15T02:50:00,0.8,北北東,1.8,北,14,98.1,0,0,0,14
172,2023-05-15T02:51:00,0.9,北北東,1.8,北,14.1,98.1,0,0,0,14
173,2023-05-15T02:52:00,0.8,北北東,1.8,北,14.1,98.1,0,0,0,14
174,2023-05-15T02:53:00,0.8,北北東,1.8,北,14,98.1,0,0,0,14
175,2023-05-15T02:54:00,0.8,北北東,1.8,北,14.1,98.2,0,0,0,14
176,2023-05-15T02:55:00,0.7,北,1.5,北北東,14.1,98.2,0,0,0,14
177,2023-05-15T02:56:00,0.7,北,1.5,北北東,14.1,98.2,0,0,0,14
178,2023-05-15T02:57:00,0.7,北,1.7,北北西,14.1,98.2,0,0,0,14
179,2023-05-15T02:58:00,0.7,北,1.7,北北西,14,98.1,0,0,0,14
180,2023-05-15T02:59:00,0.7,北,1.7,北北西,13.9,98.1,0,0,0,14
181,2023-05-15T03:00:00,0.7,北,1.7,北北西,14,98.1,0,0,0,14
182,2023-05-15T03:01:00,0.8,北,1.7,北北西,14,98.2,0,0,0,14
183,2023-05-15T03:02:00,0.8,北,1.7,北北西,14,98.2,0,0,0,14
184,2023-05-15T03:03:00,0.8,北,1.7,北北西,14,98.2,0,0,0,14
185,2023-05-15T03:04:00,0.8,北,1.7,北北西,14,98.2,0,0,0,14
186,2023-05-15T03:05:00,0.8,北,1.7,北北西,13.9,98.1,0,0,0,14
187,2023-05-15T03:06:00,0.8,北,1.7,北北西,13.9,98.1,0,0,0,14
188,2023-05-15T03:07:00,0.8,北,1.5,北,14,98.2,0,0,0,14
189,2023-05-15T03:08:00,0.7,北,1.5,北,14,98.2,0,0,0,14
190,2023-05-15T03:09:00,0.7,北,1.5,北,14,98.2,0,0,0,14
191,2023-05-15T03:10:00,0.6,北,1.3,北,13.9,98.2,0,0,0,14
192,2023-05-15T03:11:00,0.6,北,1.3,北,13.7,98.1,0,0,0,14
193,2023-05-15T03:12:00,0.6,北北西,1.3,北,13.7,98.1,0,0,0,14
194,2023-05-15T03:13:00,0.6,北北西,1.3,北,13.7,98.1,0,0,0,14
195,2023-05-15T03:14:00,0.6,北西,1,西,13.7,98.1,0,0,0,14
196,2023-05-15T03:15:00,0.5,北西,1,西,13.8,98.1,0,0,0,14
197,2023-05-15T03:16:00,0.5,西北西,1,西,13.8,98.2,0,0,0,14
198,2023-05-15T03:17:00,0.6,西北西,1,西,13.8,98.2,0,0,0,14
199,2023-05-15T03:18:00,0.6,西,1,西,13.8,98.2,0,0,0,14
200,2023-05-15T03:19:00,0.6,西,1,西,13.8,98.2,0,0,0,14
201,2023-05-15T03:20:00,0.6,西,1,西,13.8,98.2,0,0,0,14
202,2023-05-15T03:21:00,0.6,西,1,西,13.8,98.2,0,0,0,14
203,2023-05-15T03:22:00,0.6,西,1,西,13.8,98.2,0,0,0,14
204,2023-05-15T03:23:00,0.6,西,1.3,西,13.8,98.2,0,0,0,14
205,2023-05-15T03:24:00,0.7,西,1.3,西,13.7,98.2,0,0,0,14
206,2023-05-15T03:25:00,0.7,西,1.3,西,13.7,98.1,0,0,0,14
207,2023-05-15T03:26:00,0.7,西,1.3,西,13.7,98.2,0,0,0,14
208,2023-05-15T03:27:00,0.6,西,1.3,西,13.7,98.2,0,0,0,14
209,2023-05-15T03:28:00,0.7,西,1.3,西,13.7,98.2,0,0,0,14
210,2023-05-15T03:29:00,0.6,西,1.3,西,13.7,98.2,0,0,0,14
211,2023-05-15T03:30:00,0.6,西,1.3,西,13.6,98.2,0,0,0,14
212,2023-05-15T03:31:00,0.6,西,1.3,西,13.7,98.2,0,0,0,14
213,2023-05-15T03:32:00,0.6,西,1.3,西,13.6,98.2,0,0,0,14
214,2023-05-15T03:33:00,0.6,西北西,1.2,西,13.7,98.2,0,0,0,14
215,2023-05-15T03:34:00,0.6,西北西,1.1,西北西,13.6,98.2,0,0,0,14
216,2023-05-15T03:35:00,0.6,西北西,1.1,西北西,13.7,98.2,0,0,0,14
217,2023-05-15T03:36:00,0.6,西北西,1.1,西北西,13.7,98.2,0,0,0,14
218,2023-05-15T03:37:00,0.6,西北西,1.7,西北西,13.7,98.2,0,0,0,14
219,2023-05-15T03:38:00,0.7,西北西,1.7,西北西,13.6,98.2,0,0,0,14
220,2023-05-15T03:39:00,0.7,西北西,1.7,西北西,13.6,98.2,0,0,0,14
221,2023-05-15T03:40:00,0.9,西北西,2.1,西北西,13.6,98.2,0,0,0,14
222,2023-05-15T03:41:00,0.9,西北西,2.1,西北西,13.6,98.2,0,0,0,14
223,2023-05-15T03:42:00,1,西北西,2.1,西北西,13.6,98.2,0,0,0,14
224,2023-05-15T03:43:00,1.1,西北西,2.1,西北西,13.6,98.2,0,0,0,14
225,2023-05-15T03:44:00,1.2,西北西,2.1,西北西,13.6,98.2,0,0,0,14
226,2023-05-15T03:45:00,1.2,西北西,2.1,西北西,13.6,98.2,0,0,0,14
227,2023-05-15T03:46:00,1.3,西北西,2.1,西北西,13.6,98.2,0,0,0,14
228,2023-05-15T03:47:00,1.3,西北西,2.1,西北西,13.6,98.2,0,0,0,14
229,2023-05-15T03:48:00,1.4,西北西,2.2,西北西,13.6,98.2,0,0,0,14
230,2023-05-15T03:49:00,1.4,西北西,2.2,西北西,13.6,98.2,0,0,0,14
231,2023-05-15T03:50:00,1.4,西北西,2.2,西北西,13.5,98.2,0,0,0,14
232,2023-05-15T03:51:00,1.4,北西,2.2,西北西,13.6,98.2,0,0,0,14
233,2023-05-15T03:52:00,1.5,北西,2.2,西北西,13.6,98.2,0,0,0,14
234,2023-05-15T03:53:00,1.4,北西,2.2,西北西,13.5,98.2,0,0,0,14
235,2023-05-15T03:54:00,1.4,北西,2.2,西北西,13.5,98.2,0,0,0,14
236,2023-05-15T03:55:00,1.4,北西,2.2,西北西,13.6,98.2,0,0,0,14
237,2023-05-15T03:56:00,1.3,北西,2.2,西北西,13.6,98.3,0,0,0,14
238,2023-05-15T03:57:00,1.2,北西,2.2,西北西,13.6,98.3,0,0,0,14
239,2023-05-15T03:58:00,1.1,北北西,2.2,西北西,13.7,98.3,0,0,0,14
240,2023-05-15T03:59:00,1,北北西,2.2,西北西,13.6,98.3,0,0,0,14
241,2023-05-15T04:00:00,0.9,北北西,1.8,北西,13.7,98.3,0,0,0,14
242,2023-05-15T04:01:00,0.8,北北西,1.8,北西,13.6,98.3,0,0,0,14
243,2023-05-15T04:02:00,0.8,北北西,1.7,北西,13.6,98.3,0,0,0,14
244,2023-05-15T04:03:00,0.7,北北西,1.5,北,13.5,98.2,0,0,0,14
245,2023-05-15T04:04:00,0.7,北北西,1.5,北,13.5,98.2,0,0,0,14
246,2023-05-15T04:05:00,0.7,北北西,1.3,北北東,13.5,98.2,0,0,0,14
247,2023-05-15T04:06:00,0.7,北北西,1.3,北北東,13.5,98.3,0,0,0,14
248,2023-05-15T04:07:00,0.7,北北西,1.3,北北東,13.6,98.3,0,0,0,14
249,2023-05-15T04:08:00,0.7,北北西,1.3,北北東,13.6,98.3,0,0,0,14
250,2023-05-15T04:09:00,0.8,北北西,1.6,北北西,13.6,98.3,0,0,0,14
251,2023-05-15T04:10:00,0.8,北西,1.6,北北西,13.6,98.3,0,0,0,14
252,2023-05-15T04:11:00,0.8,北北西,1.6,北北西,13.6,98.3,0,0,0,14
253,2023-05-15T04:12:00,0.7,北北西,1.6,北北西,13.7,98.3,0,0,0,14
254,2023-05-15T04:13:00,0.8,北北西,1.6,北北西,13.6,98.3,0,0,0,14
255,2023-05-15T04:14:00,0.8,北北西,1.6,北北西,13.6,98.3,0,0,0,14
256,2023-05-15T04:15:00,0.8,北,1.6,北北西,13.6,98.3,0,0,0,14
257,2023-05-15T04:16:00,0.9,北,1.6,北北西,13.6,98.3,0,0,0,14
258,2023-05-15T04:17:00,0.9,北,1.6,北北西,13.5,98.3,0,0,0,14
259,2023-05-15T04:18:00,0.9,北,1.6,北北西,13.5,98.3,0,0,0,14
260,2023-05-15T04:19:00,0.9,北北西,1.6,北,13.4,98.2,0,0,0,14
261,2023-05-15T04:20:00,1,北北西,1.9,北西,13.4,98.2,0,0,0,14
262,2023-05-15T04:21:00,1.1,北北西,1.9,北西,13.4,98.3,0,0,0,14
263,2023-05-15T04:22:00,1.1,北北西,1.9,北西,13.3,98.3,0,0,0,14
264,2023-05-15T04:23:00,1.1,北北西,1.9,北西,13.4,98.2,0,0,0,14
265,2023-05-15T04:24:00,1.1,北北西,1.9,北西,13.4,98.3,0,0,0,14
266,2023-05-15T04:25:00,1.1,北北西,1.9,北西,13.5,98.3,0,0,0,14
267,2023-05-15T04:26:00,1.1,北北西,1.9,北西,13.5,98.4,0,0,0,14
268,2023-05-15T04:27:00,1.2,北北西,1.9,北西,13.5,98.4,0,0,0,14
269,2023-05-15T04:28:00,1.2,北,1.9,北西,13.5,98.3,0,0,0,14
270,2023-05-15T04:29:00,1.1,北,1.9,北西,13.5,98.3,0,0,0,14
271,2023-05-15T04:30:00,1,北北東,1.7,北北東,13.4,98.3,0,0,0,14
272,2023-05-15T04:31:00,1,北北東,1.7,北北東,13.5,98.3,0,0,0,14
273,2023-05-15T04:32:00,0.9,北北東,1.7,北北東,13.4,98.3,0,0,0,14
274,2023-05-15T04:33:00,0.9,北北東,1.7,北北東,13.4,98.3,0,0,0,14
275,2023-05-15T04:34:00,0.9,北東,1.7,北北東,13.5,98.3,0,0,0,14
276,2023-05-15T04:35:00,0.9,北東,1.7,北北東,13.4,98.3,0,0,0,14
277,2023-05-15T04:36:00,0.9,北北東,1.6,北東,13.4,98.3,0,0,0,14
278,2023-05-15T04:37:00,0.9,北北東,1.6,北東,13.4,98.3,0,0,0,14
279,2023-05-15T04:38:00,0.9,北北東,1.7,北北西,13.4,98.3,0,0,0,14
280,2023-05-15T04:39:00,0.9,北北東,1.7,北北西,13.3,98.3,0,0,0,14
281,2023-05-15T04:40:00,0.9,北北東,1.7,北北西,13.4,98.3,0,0,0,14
282,2023-05-15T04:41:00,0.8,北北東,1.7,北北西,13.5,98.4,0,0,0,14
283,2023-05-15T04:42:00,0.8,北北東,1.7,北北西,13.4,98.4,0,0,0,14
284,2023-05-15T04:43:00,0.8,北,1.7,北北西,13.4,98.4,0,0,0,14
285,2023-05-15T04:44:00,0.7,北,1.7,北北西,13.4,98.4,0,0,0,14
286,2023-05-15T04:45:00,0.7,北,1.7,北北西,13.4,98.4,0,0,0,14
287,2023-05-15T04:46:00,0.7,北北西,1.7,北北西,13.4,98.4,0,0,0,14
288,2023-05-15T04:47:00,0.7,北北西,1.7,北北西,13.4,98.3,0,0,0,14
289,2023-05-15T04:48:00,0.7,北北西,1.4,北北西,13.4,98.3,0,0,0,14
290,2023-05-15T04:49:00,0.7,北北西,1.4,北北西,13.3,98.3,0,0,0,14
291,2023-05-15T04:50:00,0.8,北西,1.6,西北西,13.3,98.3,0,0,0,14
292,2023-05-15T04:51:00,0.9,北西,1.6,西北西,13.2,98.3,0,0,0,14
293,2023-05-15T04:52:00,0.9,北西,1.6,西北西,13.2,98.3,0,0,0,14
294,2023-05-15T04:53:00,0.9,北西,1.6,西北西,13.2,98.3,0,0,0,14
295,2023-05-15T04:54:00,0.9,北西,1.6,西北西,13.2,98.3,0,0,0,14
296,2023-05-15T04:55:00,0.9,北西,1.6,西北西,13.2,98.3,0,0,0,14
297,2023-05-15T04:56:00,0.9,北西,1.8,北西,13.2,98.3,0,0,0,14
298,2023-05-15T04:57:00,0.9,北西,1.9,西北西,13.2,98.3,0,0,0,14
299,2023-05-15T04:58:00,0.8,北西,1.9,西北西,13.2,98.3,0,0,0,14
300,2023-05-15T04:59:00,0.8,北西,1.9,西北西,13.2,98.3,0,0,0,14
301,2023-05-15T05:00:00,0.9,北西,1.9,西北西,13.1,98.3,0,0,0,14
302,2023-05-15T05:01:00,0.9,北西,1.9,西北西,13.1,98.3,0,0,0,14
303,2023-05-15T05:02:00,1,北西,2,西南西,13.1,98.3,0,0,0,14
304,2023-05-15T05:03:00,1,西北西,2.1,西南西,13.2,98.4,0,0,0,14
305,2023-05-15T05:04:00,1.1,西北西,2.1,西南西,13.2,98.4,0,0,0,14
306,2023-05-15T05:05:00,1.2,西北西,2.1,西南西,13.2,98.4,0,0,0,14
307,2023-05-15T05:06:00,1.2,西北西,2.1,西南西,13.2,98.4,0,0,0,14
308,2023-05-15T05:07:00,1.2,西北西,2.2,西,13.2,98.4,0,0,0,14
309,2023-05-15T05:08:00,1.4,西,2.3,西北西,13.2,98.4,0,0,0,14
310,2023-05-15T05:09:00,1.5,西,2.9,西北西,13.2,98.4,0,0,0,14
311,2023-05-15T05:10:00,1.6,西北西,2.9,西北西,13.2,98.4,0,0,0,14
312,2023-05-15T05:11:00,1.6,西北西,2.9,西北西,13.1,98.4,0,0,0,14
313,2023-05-15T05:12:00,1.6,西北西,2.9,西北西,13.2,98.4,0,0,0,14
314,2023-05-15T05:13:00,1.6,西北西,2.9,西北西,13.2,98.4,0,0,0,14
315,2023-05-15T05:14:00,1.6,北西,2.9,西北西,13.2,98.4,0,0,0,14
316,2023-05-15T05:15:00,1.6,北西,2.9,西北西,13.2,98.4,0,0,0,14
317,2023-05-15T05:16:00,1.7,北西,2.9,西北西,13.2,98.4,0,0,0,14
318,2023-05-15T05:17:00,1.7,北西,2.9,西北西,13.2,98.4,0,0,0,14
319,2023-05-15T05:18:00,1.6,北西,2.9,西北西,13.2,98.4,0,0,0,14
320,2023-05-15T05:19:00,1.6,北西,2.7,北西,13.2,98.4,0,0,0,14
321,2023-05-15T05:20:00,1.5,北西,2.1,北西,13.2,98.4,0,0,0,14
322,2023-05-15T05:21:00,1.4,北西,2.1,北西,13.2,98.4,0,0,0,14
323,2023-05-15T05:22:00,1.4,北西,1.9,西北西,13.2,98.4,0,0,0,14
324,2023-05-15T05:23:00,1.4,北西,1.9,西北西,13.1,98.4,0,0,0,14
325,2023-05-15T05:24:00,1.3,北西,1.9,西北西,13.1,98.4,0,0,0,14
326,2023-05-15T05:25:00,1.3,西北西,2.6,西北西,13.1,98.4,0,0,0,14
327,2023-05-15T05:26:00,1.4,西北西,2.6,西北西,13.1,98.4,0,0,0,14
328,2023-05-15T05:27:00,1.4,西北西,2.6,西北西,13.2,98.4,0,0,0,14
329,2023-05-15T05:28:00,1.4,北西,2.6,西北西,13.2,98.4,0,0,0,14
330,2023-05-15T05:29:00,1.3,北西,2.6,西北西,13.3,98.4,0,0,0,14
331,2023-05-15T05:30:00,1.3,北西,2.6,西北西,13.3,98.5,0,0,0,14
332,2023-05-15T05:31:00,1.2,北西,2.6,西北西,13.3,98.4,0,0,0,14
333,2023-05-15T05:32:00,1.2,北西,2.6,西北西,13.2,98.4,0,0,0,14
334,2023-05-15T05:33:00,1.2,北西,2.6,西北西,13.1,98.4,0,0,0,14
335,2023-05-15T05:34:00,1.2,北西,2.6,西北西,13.2,98.4,0,0,0,14
336,2023-05-15T05:35:00,1.2,北西,2.5,西北西,13.1,98.4,0,0,0,14
337,2023-05-15T05:36:00,1,北西,2.1,西北西,13.1,98.4,0,0,0,14
338,2023-05-15T05:37:00,1,北北西,1.9,北北西,13.1,98.4,0,0,0,14
339,2023-05-15T05:38:00,0.8,北北西,1.8,北西,13.2,98.4,0,0,0,14
340,2023-05-15T05:39:00,0.8,北北西,1.8,北西,13.2,98.4,0,0,0,14
341,2023-05-15T05:40:00,0.8,北西,1.8,北西,13.1,98.4,0,0,0,14
342,2023-05-15T05:41:00,0.7,北西,1.8,北西,13.1,98.4,0,0,0,14
343,2023-05-15T05:42:00,0.6,北西,1.5,北西,13.1,98.4,0,0,0,14
344,2023-05-15T05:43:00,0.5,北西,1.4,北西,13.1,98.4,0,0,0,14
345,2023-05-15T05:44:00,0.5,西北西,1.1,西南西,13.1,98.4,0,0,0,14
346,2023-05-15T05:45:00,0.5,西北西,1.6,西,13.1,98.4,0,0,0,14
347,2023-05-15T05:46:00,0.5,西北西,1.6,西,13.1,98.4,0,0,0,14
348,2023-05-15T05:47:00,0.5,西北西,1.6,西,13.1,98.4,0,0,0,14
349,2023-05-15T05:48:00,0.6,西北西,1.6,西,13.1,98.4,0,0,0,14
350,2023-05-15T05:49:00,0.7,西北西,1.6,西,13,98.4,0,0,0,14
351,2023-05-15T05:50:00,0.8,西北西,1.6,西,13.1,98.4,0,0,0,14
352,2023-05-15T05:51:00,0.8,西北西,1.6,西,13,98.4,0,0,0,14
353,2023-05-15T05:52:00,0.8,西,1.6,西,13,98.4,0,0,0,14
354,2023-05-15T05:53:00,0.8,西,1.6,西,13.1,98.4,0,0,0,14
355,2023-05-15T05:54:00,0.8,西,1.6,西,13.1,98.4,0,0,0,14
356,2023-05-15T05:55:00,0.7,西,1.5,西北西,13,98.4,0,0,0,14
357,2023-05-15T05:56:00,0.7,西,1.5,西北西,13.1,98.4,0,0,0,14
358,2023-05-15T05:57:00,0.7,西,1.5,西北西,13,98.4,0,0,0,14
359,2023-05-15T05:58:00,0.7,西,1.5,西北西,13,98.4,0,0,0,14
360,2023-05-15T05:59:00,0.6,西,1.4,西北西,13.1,98.4,0,0,0,14
361,2023-05-15T06:00:00,0.5,西,1,西北西,13.1,98.4,0,0,0,14
362,2023-05-15T06:01:00,0.4,西,1,西北西,13.1,98.4,0,0,0,14
363,2023-05-15T06:02:00,0.4,西,1,西北西,13.1,98.4,0,0,0,14
364,2023-05-15T06:03:00,0.5,西北西,1.1,北西,13.2,98.5,0,0,0,14
365,2023-05-15T06:04:00,0.5,西北西,1.1,北西,13.2,98.5,0,0,0,14
366,2023-05-15T06:05:00,0.5,西北西,1.1,北西,13.2,98.5,0,0,0,14
367,2023-05-15T06:06:00,0.6,西北西,1.2,北北西,13.2,98.5,0,0,0,14
368,2023-05-15T06:07:00,0.6,北西,1.3,北,13.2,98.5,0,0,0,14
369,2023-05-15T06:08:00,0.7,北西,1.3,北,13.2,98.5,0,0,0,14
370,2023-05-15T06:09:00,0.7,北西,1.3,北,13.2,98.5,0,0,0,14
371,2023-05-15T06:10:00,0.7,北北西,1.3,北,13.1,98.4,0,0,0,14
372,2023-05-15T06:11:00,0.8,北北西,1.3,北,13.1,98.4,0,0,0,14
373,2023-05-15T06:12:00,0.8,北,1.3,北,13.1,98.4,0,0,0,14
374,2023-05-15T06:13:00,0.7,北,1.3,北,13.3,98.5,0,0,0,14
375,2023-05-15T06:14:00,0.7,北,1.3,北,13.2,98.5,0,0,0,14
376,2023-05-15T06:15:00,0.7,北,1.3,北,13.3,98.5,0,0,0,14
377,2023-05-15T06:16:00,0.7,北,1.3,北,13.2,98.5,0,0,0,14
378,2023-05-15T06:17:00,0.6,北,1.3,北,13.2,98.5,0,0,0,14
379,2023-05-15T06:18:00,0.6,北北東,1.2,北東,13.2,98.4,0,0,0,14
380,2023-05-15T06:19:00,0.7,北北東,1.4,北東,13.2,98.4,0,0,0,14
381,2023-05-15T06:20:00,0.7,北北東,1.4,北東,13.1,98.4,0,0,0,14
382,2023-05-15T06:21:00,0.7,北北東,1.4,北東,13.1,98.4,0,0,0,14
383,2023-05-15T06:22:00,0.7,北北東,1.4,北東,13.1,98.4,0,0,0,14
384,2023-05-15T06:23:00,0.7,北北東,1.4,北東,13.2,98.4,0,0,0,14
385,2023-05-15T06:24:00,0.7,北北東,1.4,北東,13.2,98.5,0,0,0,14
386,2023-05-15T06:25:00,0.7,北北東,1.4,北東,13.3,98.5,0,0,0,14
387,2023-05-15T06:26:00,0.7,北北東,1.4,北東,13.3,98.5,0,0,0,14
388,2023-05-15T06:27:00,0.7,北北東,1.4,北東,13.2,98.5,0,0,0,14
389,2023-05-15T06:28:00,0.6,北北東,1.4,北東,13.3,98.5,0,0,0,14
390,2023-05-15T06:29:00,0.6,北北東,1.3,北北東,13.2,98.5,0,0,0,14
391,2023-05-15T06:30:00,0.6,北北東,1.3,北北東,13.3,98.5,0,0,0,14
392,2023-05-15T06:31:00,0.6,北北東,1.4,北北東,13.3,98.5,0,0,0,14
393,2023-05-15T06:32:00,0.6,北北東,1.6,北東,13.4,98.5,0,0,0,14
394,2023-05-15T06:33:00,0.7,北北東,1.8,北東,13.2,98.5,0,0,0,14
395,2023-05-15T06:34:00,0.6,北東,1.8,北東,13.2,98.4,0,0,0,14
396,2023-05-15T06:35:00,0.6,北東,1.8,北東,13.2,98.4,0,0,0,14
397,2023-05-15T06:36:00,0.6,北東,1.8,北東,13.3,98.4,0,0,0,14
398,2023-05-15T06:37:00,0.6,北東,1.8,北東,13.3,98.5,0,0,0,14
399,2023-05-15T06:38:00,0.7,北東,1.8,北東,13.3,98.5,0,0,0,14
400,2023-05-15T06:39:00,0.6,北東,1.8,北東,13.3,98.5,0,0,0,14
401,2023-05-15T06:40:00,0.6,北東,1.8,北東,13.4,98.5,0,0,0,14
402,2023-05-15T06:41:00,0.6,北東,1.8,北東,13.4,98.5,0,0,0,14
403,2023-05-15T06:42:00,0.5,北東,1.8,北東,13.4,98.5,0,0,0,14
404,2023-05-15T06:43:00,0.5,北東,1.3,東北東,13.4,98.5,0,0,0,14
405,2023-05-15T06:44:00,0.6,北東,1.3,東北東,13.3,98.5,0,0,0,14
406,2023-05-15T06:45:00,0.6,北東,1.3,東北東,13.3,98.4,0,0,0,14
407,2023-05-15T06:46:00,0.7,北東,1.3,東北東,13.3,98.5,0,0,0,14
408,2023-05-15T06:47:00,0.7,北東,1.3,東北東,13.3,98.5,0,0,0,14
409,2023-05-15T06:48:00,0.7,北東,1.3,東北東,13.4,98.5,0,0,0,14
410,2023-05-15T06:49:00,0.7,北東,1.3,東北東,13.4,98.5,0,0,0,14
411,2023-05-15T06:50:00,0.7,北東,1.3,東北東,13.4,98.5,0,0,0,14
412,2023-05-15T06:51:00,0.7,北北東,1.3,東北東,13.4,98.5,0,0,0,14
413,2023-05-15T06:52:00,0.6,北北東,1.3,東北東,13.5,98.5,0,0,0,14
414,2023-05-15T06:53:00,0.6,北北東,1.3,東北東,13.3,98.5,0,0,0,14
415,2023-05-15T06:54:00,0.5,北北東,1.3,東北東,13.3,98.4,0,0,0,14
416,2023-05-15T06:55:00,0.5,北北東,1,北北西,13.4,98.4,0,0,0,14
417,2023-05-15T06:56:00,0.4,北,1,北北西,13.4,98.5,0,0,0,14
418,2023-05-15T06:57:00,0.5,北,1.4,北,13.5,98.5,0,0,0,14
419,2023-05-15T06:58:00,0.5,北,1.4,北,13.6,98.5,0,0,0,14
420,2023-05-15T06:59:00,0.6,北,1.4,北,13.5,98.5,0,0,0,14
421,2023-05-15T07:00:00,0.6,北,1.4,北,13.4,98.5,0,0,0,14
422,2023-05-15T07:01:00,0.6,北,1.4,北,13.4,98.5,0,0,0,14
423,2023-05-15T07:02:00,0.6,北北西,1.4,北,13.5,98.4,0,0,0,14